Theta_e
314 313 312 311 311 312 312 313 313 313 313 313 313 312 312 312 313 313 316 317 314 313 315 320 320 320 321 320 327 325 328 331 330 329 325 319 321 318 316 315 314 314 313 314 320
321 319 318 316 313 309 311 312 312 313 313 313 313 312 312 312 313 318 316 315 313 315 318 320 319 318 317 321 325 327 326 330 325 324 322 321 320 318 316 315 315 316 314 316 319
322 322 321 319 316 314 310 310 312 312 312 313 313 312 312 312 319 317 315 314 314 316 319 319 319 318 319 320 323 327 329 326 325 325 322 321 320 317 314 315 313 315 315 315 316
324 323 322 321 319 317 315 310 310 312 312 312 313 312 312 315 317 316 315 314 314 316 318 317 315 318 318 318 318 324 324 323 324 321 322 321 319 318 315 314 314 313 315 315 313
326 326 325 323 321 319 317 313 308 311 312 312 313 312 312 315 316 317 315 315 316 316 317 316 316 315 317 316 316 318 320 320 320 317 317 315 316 317 316 314 313 314 314 314 314
326 325 324 324 324 321 318 313 308 309 312 312 312 312 318 314 316 316 315 316 316 316 316 314 314 314 315 315 315 316 317 316 316 315 314 314 312 314 312 311 312 314 314 313 313
327 325 324 325 324 322 316 308 306 307 312 312 312 313 316 312 315 316 315 316 315 315 315 315 315 315 315 316 315 315 314 312 312 313 314 313 313 314 311 310 311 311 312 313 313
325 323 323 324 323 321 314 313 314 308 312 312 312 313 313 314 315 315 315 316 316 315 315 315 315 315 316 315 313 315 313 314 315 313 315 313 311 313 311 309 310 309 308 311 312
324 324 324 323 323 319 316 318 316 312 313 312 314 314 314 313 313 315 315 316 316 316 316 316 315 315 313 313 315 314 315 314 315 313 315 313 312 312 311 309 309 307 307 307 309
324 324 324 323 322 318 316 318 316 314 314 314 316 312 311 314 314 314 315 315 315 315 313 316 311 313 311 312 316 313 315 312 316 315 314 314 312 311 311 309 309 306 305 307 308
323 323 324 323 321 317 317 318 313 314 315 313 312 310 312 313 314 314 315 315 314 312 312 312 314 313 314 312 314 313 313 313 311 314 314 312 311 311 309 309 308 306 305 305 306
322 322 322 323 322 317 316 315 315 314 316 316 316 315 315 315 313 312 314 314 313 312 312 311 314 314 312 314 314 314 315 313 312 314 312 310 310 310 308 308 311 310 307 306 305
317 319 320 322 321 317 317 316 317 316 316 317 317 315 316 315 312 311 312 312 313 313 313 311 312 314 315 315 315 315 315 314 313 312 311 310 312 311 311 308 308 310 310 308 307
315 316 318 321 321 319 317 318 315 317 312 313 317 316 313 312 313 312 313 312 312 312 311 310 311 314 315 314 314 315 313 314 314 311 309 311 313 310 311 311 308 308 306 308 306
311 314 316 321 321 319 319 320 315 315 310 314 315 313 312 314 312 312 312 313 313 313 312 312 315 314 315 314 314 314 313 313 313 312 314 313 312 310 311 313 309 308 308 308 308
308 310 313 320 321 320 321 316 316 309 310 314 313 313 313 313 313 312 312 312 312 314 312 311 312 313 313 313 313 313 313 313 313 313 316 313 313 313 311 312 312 310 307 308 307
305 308 310 313 320 320 322 315 310 313 312 314 313 312 313 313 313 312 312 311 311 312 310 310 312 312 313 314 312 311 308 309 320 321 315 314 313 314 312 311 312 310 309 307 305
303 306 310 311 313 319 319 313 315 312 313 314 314 312 312 312 312 311 311 310 309 310 309 310 312 311 311 312 311 310 308 308 318 326 323 315 316 318 314 313 311 311 311 309 306
303 307 311 310 316 320 311 315 307 313 314 314 314 313 313 313 313 311 309 309 309 308 310 310 312 310 310 310 312 312 312 311 315 314 317 316 315 315 314 313 312 311 308 308 307
304 310 310 312 313 318 314 315 315 313 313 313 314 312 313 313 312 311 310 310 311 309 309 311 312 310 310 310 310 312 311 313 311 314 316 316 319 318 316 315 313 311 309 308 307
307 307 311 315 316 319 318 311 313 312 312 313 313 314 313 314 311 311 312 312 311 312 308 309 311 311 310 310 310 310 312 312 309 312 317 321 320 316 317 316 312 309 309 309 308
308 304 310 316 319 318 320 313 315 316 316 315 312 313 314 314 314 311 312 312 311 310 311 309 308 310 310 309 307 308 310 311 313 311 314 316 319 315 313 312 313 310 308 309 308
302 304 309 314 320 315 315 317 318 318 318 319 316 313 312 312 313 313 313 313 311 312 311 309 309 311 311 310 309 309 308 310 309 310 314 315 314 313 315 313 312 311 310 309 310
300 305 308 306 309 316 317 316 316 316 317 319 319 319 319 318 313 313 313 314 312 313 314 311 308 310 312 311 310 310 310 309 310 309 311 314 313 314 314 313 312 312 310 308 310
301 300 304 306 310 309 311 314 316 318 318 318 318 319 320 316 315 314 312 312 313 312 312 310 311 310 309 310 311 312 311 310 309 311 311 311 311 312 311 312 311 312 312 310 309
302 302 300 302 304 306 309 312 313 313 312 314 316 318 317 319 317 316 313 312 311 312 311 308 311 311 311 311 310 312 312 312 311 311 311 311 312 312 309 307 308 307 309 308 310
303 303 301 302 302 304 305 308 311 307 310 310 309 311 315 316 312 313 316 315 313 311 310 308 310 310 311 312 310 311 312 312 312 311 312 312 313 313 311 309 311 311 311 309 308
Wind_Speed
16 16 17 17 16 14 14 15 15 15 15 15 16 17 17 17 17 8 3 4 5 7 7 9 7 15 2 2 1 3 3 1 2 3 4 5 4 1 2 6 3 2 7 6 32
18 18 18 19 19 18 15 14 15 15 16 16 16 16 17 18 17 7 3 4 5 4 2 6 7 12 3 1 1 4 3 3 2 3 4 4 4 7 5 4 2 2 3 19 36
18 20 21 21 20 20 19 16 15 15 15 16 17 17 16 15 4 2 1 2 2 3 4 6 7 1 2 1 2 3 4 4 2 1 2 3 2 3 9 4 7 9 8 15 19
19 20 21 22 23 23 21 20 15 14 15 16 16 17 15 3 3 2 2 1 1 3 5 8 5 3 2 2 2 2 1 3 4 1 1 2 1 4 6 8 9 11 19 19 14
21 22 22 23 25 25 24 22 17 14 13 14 16 14 5 3 6 3 1 1 2 3 5 3 3 3 2 3 3 1 2 2 3 3 2 2 4 5 7 8 2 14 12 16 17
20 21 22 24 25 27 27 24 16 15 13 12 13 10 2 2 3 3 2 1 1 2 5 3 0 2 3 3 2 2 1 3 4 3 2 3 3 1 7 5 7 14 15 13 15
20 23 22 24 26 28 29 23 15 13 12 10 7 4 2 10 4 5 3 2 1 1 1 2 2 2 1 4 4 2 3 6 5 4 4 3 7 10 10 4 10 11 12 13 17
20 22 23 25 27 30 29 21 18 11 10 7 2 0 6 4 4 10 7 6 3 2 1 2 2 1 1 2 6 1 4 3 4 7 2 5 9 8 8 9 10 11 9 11 15
19 21 23 26 28 29 28 26 15 6 5 3 0 2 8 5 5 10 9 4 5 4 3 2 2 1 5 3 4 5 3 4 8 8 4 4 8 6 3 9 9 10 10 11 12
18 21 23 26 29 27 27 17 4 1 2 2 1 2 5 3 2 3 6 4 0 3 5 3 5 3 3 4 3 3 3 5 5 4 4 4 14 10 6 7 12 11 11 11 13
20 21 22 25 28 21 24 4 7 4 4 6 4 4 2 1 1 3 3 2 2 5 1 3 4 3 6 8 5 3 3 3 5 2 3 8 11 15 10 7 11 10 10 12 14
19 22 23 23 26 15 14 6 2 4 8 9 10 9 12 6 2 3 3 2 2 3 0 5 5 9 5 4 4 3 3 5 5 1 1 8 14 15 10 9 16 17 14 14 8
19 20 24 22 15 12 14 12 11 11 2 7 6 4 5 11 5 5 10 3 3 3 3 5 6 1 5 2 2 2 3 3 4 5 4 6 9 6 5 8 9 15 13 13 16
18 19 22 23 4 16 2 21 16 8 4 5 3 2 2 6 3 6 11 5 1 7 4 5 5 6 2 3 4 2 2 2 3 5 3 4 6 8 5 8 9 12 11 14 12
17 17 17 14 11 4 15 22 15 1 4 2 2 1 1 6 2 3 2 3 3 2 4 6 2 3 3 5 3 6 1 2 2 1 4 3 1 9 2 7 10 13 15 15 13
17 17 17 10 11 6 19 19 1 4 5 2 1 3 4 1 2 2 2 4 2 1 1 7 3 5 7 1 1 2 3 6 4 2 2 5 5 7 5 8 4 5 10 13 12
17 17 15 12 5 16 20 5 4 3 4 4 4 3 3 5 3 3 3 2 5 3 3 4 4 2 3 3 4 4 6 4 3 2 6 1 3 11 8 9 8 10 13 12 10
19 16 13 15 13 13 9 4 3 3 5 2 3 3 5 6 4 6 3 2 4 3 2 4 6 7 3 6 6 5 7 5 4 3 5 2 7 7 8 7 9 9 10 10 10
19 13 11 8 4 2 4 2 7 5 4 2 2 2 3 5 3 3 7 6 7 11 8 5 5 1 2 1 5 3 4 4 2 1 2 5 8 10 7 8 5 9 8 11 11
18 8 8 8 7 3 3 5 4 3 6 5 4 5 4 3 5 7 6 4 5 11 5 4 1 2 1 1 2 3 3 3 2 3 5 6 6 8 9 7 5 6 10 10 9
8 4 2 6 7 1 4 6 5 4 8 5 3 3 3 2 5 4 5 4 6 4 8 5 4 2 1 5 8 1 2 0 2 5 4 3 6 6 6 7 10 10 9 9 10
5 3 7 3 3 3 6 4 3 5 8 5 3 3 3 3 3 4 7 6 5 8 8 7 4 5 11 3 5 5 9 7 4 5 4 3 8 4 8 9 6 9 6 4 5
2 3 4 2 3 5 4 7 7 13 6 5 5 3 8 7 6 4 3 4 6 5 8 6 3 2 7 4 0 5 6 6 3 3 7 5 7 2 7 10 9 5 4 4 6
2 3 2 4 3 2 4 7 10 9 12 7 7 9 6 5 5 7 5 4 5 2 0 4 5 8 7 5 4 4 5 7 8 4 6 18 18 21 16 11 10 10 6 7 8
1 3 2 3 2 4 4 7 9 7 4 8 4 6 6 4 5 5 7 5 4 3 2 2 6 5 6 6 4 6 9 10 12 16 13 2 20 17 20 20 13 5 6 7 9
3 2 3 2 3 4 1 1 5 14 12 13 12 11 10 8 10 13 11 4 6 2 4 1 4 2 6 7 8 16 21 18 17 18 21 19 32 16 14 7 9 10 9 9 9
7 3 3 2 0 1 2 2 4 11 8 10 16 15 15 11 14 17 18 15 13 7 4 3 4 2 5 4 8 14 20 23 18 15 15 17 32 19 16 12 19 21 16 13 11
Wind_Direction
18 11 5 358 351 348 343 340 339 340 339 337 336 335 333 329 327 318 265 262 292 307 319 329 335 358 72 285 137 92 60 327 274 165 198 184 140 109 96 118 60 10 152 215 171
22 16 10 4 358 349 339 334 333 333 334 334 334 333 332 330 327 296 245 273 301 343 299 353 329 349 359 249 16 97 109 241 266 198 179 196 158 153 128 125 31 348 14 146 163
12 11 8 3 360 354 347 333 327 327 329 332 332 331 331 326 323 269 184 281 341 338 325 319 309 281 317 242 201 157 178 205 259 62 113 183 168 204 127 206 194 197 175 155 167
0 358 359 360 357 353 347 339 322 321 324 327 330 331 332 329 221 243 253 331 2 317 331 355 1 355 312 307 261 171 236 217 179 127 106 183 282 223 191 212 199 190 167 166 173
349 349 347 348 350 348 344 337 320 314 317 323 329 333 344 8 252 225 233 97 43 302 348 326 38 3 299 292 321 93 243 170 180 176 229 222 237 240 236 236 120 146 163 179 185
342 338 339 339 342 342 338 334 320 309 308 317 326 332 347 283 199 216 196 211 302 355 6 53 82 240 266 296 145 244 273 277 237 239 264 230 266 148 254 208 143 160 183 189 192
331 333 334 338 338 338 335 329 316 302 299 309 318 337 309 239 222 214 209 237 286 37 58 19 13 62 329 342 310 317 339 325 230 210 230 164 294 232 222 138 168 189 194 196 206
334 334 341 340 338 337 335 330 315 291 294 295 290 111 252 284 262 229 237 245 239 241 294 319 344 168 186 277 2 26 54 346 290 158 199 94 273 272 238 167 198 203 208 209 213
339 338 339 341 339 339 335 330 307 277 281 256 268 150 271 316 230 241 235 230 243 254 276 320 41 64 18 69 5 8 249 231 309 196 133 161 268 271 160 178 209 208 211 215 227
337 339 339 341 343 343 339 335 4 99 131 162 214 15 281 251 223 188 195 224 188 338 4 48 50 56 34 76 217 248 255 265 245 236 196 196 260 271 270 206 219 211 215 217 221
334 334 336 338 342 349 349 17 11 354 7 204 226 215 279 189 223 262 193 129 39 44 267 352 60 224 240 216 223 251 243 270 260 252 172 240 262 264 251 219 234 236 226 225 226
336 338 336 334 340 358 33 64 89 281 308 275 256 272 269 306 300 277 186 123 118 222 251 12 242 236 244 200 226 256 293 298 288 299 192 273 263 259 223 223 215 219 226 226 229
331 332 334 335 340 7 61 32 345 350 254 293 219 195 209 176 216 247 148 169 192 239 201 175 238 109 190 232 258 271 226 258 252 322 267 307 286 290 265 226 205 217 220 221 215
327 330 332 337 357 348 35 342 339 340 19 276 216 200 127 127 249 229 188 153 206 219 220 224 271 192 218 253 140 292 217 280 321 29 270 37 287 295 266 261 218 214 211 219 210
330 329 331 343 319 2 326 328 327 153 346 150 186 334 108 142 136 358 117 82 200 255 72 258 211 192 213 228 165 228 35 348 351 349 348 303 126 271 296 263 237 221 218 220 217
331 327 326 339 317 300 331 330 357 42 258 162 124 137 105 25 34 350 80 48 157 264 215 235 271 178 205 153 42 89 22 31 50 73 331 238 159 277 221 221 262 221 223 219 213
331 323 314 305 280 323 330 352 38 170 345 193 185 162 161 186 218 170 167 172 185 119 276 318 223 219 145 125 12 78 55 329 339 348 229 217 173 252 261 240 225 215 212 211 203
335 325 308 284 293 303 331 53 190 246 252 235 137 102 181 164 234 194 138 246 236 121 132 184 311 172 189 178 185 181 158 164 244 240 282 333 240 253 233 253 244 221 214 197 194
337 332 302 303 315 269 67 132 211 216 279 207 62 169 240 225 169 140 203 213 215 174 181 161 271 50 17 54 142 177 184 193 137 330 6 248 289 294 289 264 238 223 184 199 203
335 314 289 292 262 201 89 241 252 259 351 353 207 174 221 224 167 171 193 216 219 183 183 215 289 36 298 293 50 150 180 75 5 241 261 281 274 242 322 304 286 222 218 212 203
336 352 307 326 165 142 210 233 285 318 27 353 334 310 251 262 196 211 216 265 211 177 175 178 139 247 83 208 190 112 273 174 147 164 202 297 268 218 264 289 265 258 230 204 193
1 338 339 359 197 215 220 193 280 317 38 301 292 241 254 329 285 234 223 230 161 149 159 210 157 197 209 235 184 180 201 159 143 242 234 167 265 282 284 291 274 253 249 275 221
12 268 327 327 235 245 292 299 302 272 279 302 331 34 37 6 323 231 278 311 345 180 172 183 216 315 326 4 256 208 204 186 134 93 211 164 260 263 335 356 356 289 244 232 237
67 337 316 42 359 346 336 267 249 285 283 247 245 284 296 270 219 282 314 314 341 314 86 99 172 180 197 208 142 205 215 209 183 192 224 237 275 276 296 303 326 339 317 282 236
82 249 229 309 70 343 327 313 315 314 314 307 298 247 242 274 285 258 251 287 270 248 263 196 216 199 237 239 273 249 241 222 210 225 218 166 242 257 261 275 277 275 294 283 257
152 173 346 297 319 19 305 271 276 304 273 289 292 303 323 308 284 299 315 283 251 335 200 34 267 242 267 270 257 266 259 245 237 233 244 253 264 252 249 281 284 266 266 263 260
205 201 107 237 320 55 214 311 307 336 296 6 341 333 303 305 325 305 276 265 269 258 221 199 160 83 254 248 300 277 250 246 244 222 228 225 251 269 262 244 249 260 267 249 252